Airport Information

KMFR - Rogue Valley Intl Medford Airport

KMFR 240753Z AUTO 29003KT 10SM SCT065 22/14 A2997 RMK AO2 SLP134 T02220144 403280189


  • General Information

  • Coordinates: N 42°22'27"/ W 122°52'24"
  • Location: N/A
  • Surveyed Elevation: 1335 MSL

Operations

Flow Name Active Runways Conditions

Green background denotes normal operations.


Common Frequencies

Callsign Frequency Position Name

More at the Document Center


Charts

Under Construction